Lapse_Rate
6.9 6.8 6.9 7.1 7.3 7.5 8.4 9.2 9.9 9.9 9.8 9.7 9.9 9.8 10.0 9.7 9.5 9.5 9.3 9.2 9.3 9.3
6.1 6.2 6.4 6.5 6.6 6.6 6.7 7.3 8.3 9.3 9.7 10.0 9.6 9.6 9.9 9.7 9.4 9.6 9.5 9.4 9.3 9.2
5.2 5.0 5.1 5.5 5.9 6.4 6.6 6.7 6.8 7.2 8.1 8.9 9.6 9.4 9.6 9.5 9.5 9.6 9.3 9.6 9.6 9.2
5.3 5.5 5.6 5.2 5.0 5.3 6.2 6.6 6.6 6.8 7.2 7.7 8.7 9.2 9.0 9.0 9.4 9.4 9.5 9.5 9.4 9.3
6.2 6.7 6.8 6.6 6.2 5.7 5.5 6.3 6.6 6.5 6.7 6.9 8.3 8.6 8.5 8.6 9.0 9.0 9.1 9.2 9.0 8.9
6.6 6.3 6.3 6.3 6.5 5.8 5.7 6.0 6.9 6.7 6.7 7.1 6.9 7.1 7.5 8.1 8.7 9.0 9.1 9.1 9.2 9.2
6.3 5.9 5.9 6.6 6.8 6.7 6.2 6.6 6.7 7.1 7.1 7.1 6.8 7.0 7.0 7.2 7.0 8.5 9.0 9.2 9.1 9.3
6.2 5.8 5.3 5.2 6.8 7.0 6.7 6.7 6.7 7.1 7.3 7.3 7.4 7.2 6.9 7.5 7.0 6.8 8.0 8.8 9.0 8.9
6.5 5.7 5.8 5.4 5.1 5.8 6.6 6.3 6.1 6.3 7.1 7.4 7.9 8.2 7.8 7.5 7.5 7.5 7.6 7.7 8.2 9.2
7.3 6.9 6.5 5.9 4.9 5.2 5.5 5.6 5.8 6.1 6.5 7.3 7.5 7.9 8.3 8.0 6.7 7.1 7.3 8.0 8.1 8.0
7.7 7.3 6.9 5.9 5.3 4.9 5.6 5.8 6.1 6.5 6.5 6.4 6.6 7.3 7.7 7.9 7.3 6.4 6.6 6.7 6.7 6.6
8.1 7.9 7.0 6.0 5.8 6.4 5.7 5.4 5.1 6.4 5.8 5.2 6.3 6.7 6.8 6.6 6.5 6.5 6.2 6.2 6.4 6.4
8.7 8.3 7.6 7.5 6.9 7.3 7.1 6.7 5.9 5.0 5.9 7.0 6.6 6.0 5.3 4.6 4.7 3.9 4.4 4.2 5.9 7.1
9.1 9.4 8.8 8.2 8.4 8.3 7.9 8.0 7.7 6.7 5.8 4.8 7.1 6.7 6.5 5.6 4.4 4.7 4.5 4.9 5.6 6.2
Wind_Speed
19 13 13 14 13 12 11 12 14 14 13 15 15 13 12 11 11 12 11 14 12 9
17 17 15 18 15 12 13 12 15 15 15 15 15 15 13 10 13 12 13 13 13 10
18 17 16 15 16 16 14 14 14 14 14 13 13 14 13 12 13 13 11 10 12 11
17 17 15 13 14 14 14 13 13 12 12 13 14 13 12 13 13 12 13 13 13 12
17 15 14 14 14 14 13 11 11 11 11 11 12 10 12 13 13 14 12 13 12 12
18 18 18 17 16 14 11 9 9 10 10 10 9 8 10 12 12 13 13 13 13 12
18 19 18 18 19 18 2 5 7 8 9 9 9 10 9 9 11 11 12 11 9 12
18 18 19 21 18 18 9 2 3 5 6 7 8 7 9 9 10 11 12 8 9 9
18 19 19 19 19 18 17 10 3 3 4 5 5 9 14 11 8 9 9 8 9 9
19 19 19 20 20 20 19 20 6 4 3 2 4 9 11 12 8 7 9 7 5 5
19 19 20 20 21 21 18 19 19 10 5 2 2 8 10 11 5 7 6 6 6 6
18 19 19 20 19 18 18 19 17 16 17 18 17 24 13 8 3 5 7 6 6 6
17 17 16 17 17 16 16 18 16 20 18 26 18 30 28 19 10 14 15 19 12 11
19 17 18 15 13 14 15 16 16 18 19 21 23 25 33 30 14 12 14 14 14 16
Wind_Direction
296 289 286 279 280 279 275 272 265 252 250 257 262 266 262 250 247 244 254 248 242 251
299 292 287 283 274 268 264 266 264 265 254 244 252 259 255 257 261 255 244 242 239 242
304 297 287 281 276 269 261 256 256 258 264 259 237 246 251 247 248 255 259 258 241 235
310 303 292 280 274 268 265 253 248 246 248 256 252 237 244 248 251 245 253 247 252 254
316 322 327 322 293 265 251 252 238 238 238 238 248 240 237 240 242 246 242 240 249 252
341 340 333 325 318 288 235 229 232 223 227 228 228 237 244 229 234 241 243 241 240 243
348 348 345 343 355 7 121 211 231 216 222 221 215 225 222 230 234 245 244 241 238 244
354 356 357 358 0 12 19 311 239 232 211 216 222 217 214 217 217 223 249 228 238 244
359 2 4 3 5 3 10 358 217 192 193 203 213 227 219 209 212 219 234 238 240 244
4 5 8 9 9 9 7 17 76 112 125 182 225 250 253 237 207 208 223 244 233 255
6 10 11 13 14 12 17 22 36 45 43 17 246 261 259 257 191 204 220 229 228 235
7 13 15 17 16 19 23 28 24 38 41 38 42 45 54 53 24 190 208 217 218 231
8 17 18 20 19 23 29 34 35 37 30 47 50 52 54 52 55 64 61 52 46 79
11 16 21 18 25 32 32 33 36 38 35 28 51 54 59 59 58 62 69 65 67 75